This is the latest recevied weather packets stored in our database for station/object N5JXS. If no packets are shown the sender has not sent any weather packets the latest 10 day(s).
| Time | Temp. | Humidity | Pressure | Rain* | Wind** | Luminosity | Snow |
|---|---|---|---|---|---|---|---|
| 1788166384 | 15° C | 63% | 1026.5 hPa | 0 mm | - | 0 W/m² | - |
| 1788166078 | 15° C | 64% | 1026.3 hPa | 0 mm | - | 0 W/m² | - |
| 1788165774 | 14.44° C | 64% | 1026.5 hPa | 0 mm | - | 0 W/m² | - |
| 1788165470 | 14.44° C | 69% | 1026.6 hPa | 0 mm | - | 0 W/m² | - |
| 1788165166 | 13.89° C | 72% | 1026.5 hPa | 0 mm | - | 0 W/m² | - |
| 1788164864 | 13.33° C | 74% | 1026.8 hPa | 0 mm | - | 0 W/m² | - |
| 1788164560 | 13.33° C | 73% | 1027 hPa | 0 mm | - | 0 W/m² | - |
| 1788164255 | 13.33° C | 75% | 1027.2 hPa | 0 mm | - | 0 W/m² | - |
| 1788163950 | 13.33° C | 76% | 1026.8 hPa | 0 mm | - | 0 W/m² | - |
| 1788163646 | 12.78° C | 76% | 1027.1 hPa | 0 mm | - | 0 W/m² | - |
| 1788163340 | 12.78° C | 76% | 1027.3 hPa | 0 mm | - | 0 W/m² | - |
| 1788163036 | 13.33° C | 76% | 1027.3 hPa | 0 mm | - | 0 W/m² | - |
| 1788162732 | 12.78° C | 75% | 1027.3 hPa | 0 mm | - | 0 W/m² | - |
| 1788162431 | 12.78° C | 76% | 1027.1 hPa | 0 mm | - | 0 W/m² | - |
| 1788162138 | 13.33° C | 75% | 1027.3 hPa | 0 mm | - | 0 W/m² | - |
| 1788161820 | 13.33° C | 75% | 1027.3 hPa | 0 mm | - | 0 W/m² | - |
| 1788161520 | 13.33° C | 76% | 1027.2 hPa | 0 mm | - | 0 W/m² | - |
| 1788161215 | 13.33° C | 78% | 1027.2 hPa | 0 mm | - | 0 W/m² | - |
| 1788160911 | 13.33° C | 75% | 1027.6 hPa | 0 mm | - | 0 W/m² | - |
| 1788160611 | 13.33° C | 79% | 1027.7 hPa | 0 mm | - | 0 W/m² | - |
| 1788160305 | 12.78° C | 79% | 1027.5 hPa | 0 mm | - | 0 W/m² | - |
| 1788160004 | 12.78° C | 83% | 1027.5 hPa | 0 mm | - | 0 W/m² | - |
| 1788159694 | 12.78° C | 83% | 1027.6 hPa | 0 mm | - | 0 W/m² | - |
| 1788159392 | 12.78° C | 82% | 1027.7 hPa | 0 mm | - | 0 W/m² | - |
| 1788159092 | 12.78° C | 82% | 1027.6 hPa | 0 mm | - | 0 W/m² | - |
* Rain latest hour (hover to see other rain measurements)
** Current wind speed in m/s (hover to see current wind gust speed)